Date,TemperatureHighF,TemperatureAvgF,TemperatureLowF,DewpointHighF,DewpointAvgF,DewpointLowF,HumidityHigh,HumidityAvg,HumidityLow,PressureMaxIn,PressureMinIn,WindSpeedMaxMPH,WindSpeedAvgMPH,GustSpeedMaxMPH,PrecipitationSumIn
2013-1-1,47.1,43.4,38.4,44.0,39.4,33.0,95,86,68,30.11,29.92,9,1,13,0.21
2013-1-2,46.3,41.4,35.6,44.0,38.8,34.0,95,90,73,30.22,29.97,10,1,10,0.15
2013-1-3,41.6,36.3,25.2,37.0,33.8,24.0,95,90,75,30.28,30.19,5,1,6,0.01
2013-1-4,48.9,34.7,20.8,30.0,23.4,19.0,94,68,35,30.34,30.21,9,2,17,0.01
2013-1-5,51.6,36.8,22.3,34.0,26.2,20.0,91,68,37,30.42,30.26,8,1,10,0.00
2013-1-6,54.0,43.6,35.3,41.0,36.6,32.0,92,78,56,30.26,30.07,5,1,11,0.03
2013-1-7,51.6,38.0,26.2,33.0,30.2,24.0,93,76,47,30.47,30.21,7,1,14,0.00
2013-1-8,51.6,34.2,21.9,39.0,30.1,20.0,94,86,62,30.51,30.41,4,0,7,0.00
2013-1-9,68.3,48.1,29.8,55.0,42.7,28.0,95,83,61,30.46,30.35,8,1,15,0.00
2013-1-10,60.1,45.6,34.2,45.0,39.0,33.0,96,80,52,30.57,30.43,7,1,10,0.00
2013-1-11,45.3,41.5,34.6,44.0,39.7,33.0,96,93,79,30.47,30.17,6,1,7,0.29
2013-1-12,69.9,55.8,45.5,63.0,53.5,45.0,97,92,76,30.18,30.11,4,0,6,0.00
2013-1-13,74.5,62.8,51.5,64.0,58.3,50.0,97,86,67,30.13,30.03,12,2,14,0.01
2013-1-14,66.0,59.9,46.4,62.0,57.7,45.0,95,92,82,30.25,30.05,10,2,18,1.37
2013-1-15,46.4,42.4,40.3,45.0,41.1,39.0,95,95,93,30.30,30.13,9,3,16,0.72
2013-1-16,47.6,43.0,39.4,47.0,41.7,38.0,96,95,95,30.13,29.98,8,2,11,0.40
2013-1-17,47.8,44.6,33.4,47.0,43.5,32.0,96,95,93,30.19,29.98,13,3,22,1.18
2013-1-18,43.3,34.9,26.9,35.0,30.0,25.0,96,84,50,30.56,30.19,10,1,10,0.43
2013-1-19,52.1,35.4,22.3,34.0,28.2,21.0,95,78,47,30.52,30.15,10,1,14,0.00
2013-1-20,61.4,44.7,30.4,38.0,32.2,28.0,92,64,34,30.14,29.99,7,2,16,0.00
2013-1-21,58.7,40.8,23.8,35.0,26.2,14.0,95,62,31,30.11,29.86,10,2,16,0.01
2013-1-22,39.4,30.0,23.1,13.0,4.9,-1.0,52,35,24,30.32,29.99,13,4,19,0.00
2013-1-23,38.3,29.5,23.1,22.0,8.8,0.0,81,44,24,30.39,30.08,13,3,19,0.00
2013-1-24,33.5,28.6,16.2,24.0,12.1,1.0,86,54,28,30.57,30.00,16,4,29,0.00
2013-1-25,26.8,21.4,14.2,24.0,17.0,9.0,90,83,51,30.56,30.14,9,2,12,0.00
2013-1-26,39.7,29.1,18.0,29.0,24.2,16.0,94,83,58,30.45,30.12,6,1,11,0.08
2013-1-27,40.4,31.2,23.1,28.0,25.3,21.0,94,80,60,30.65,30.45,7,1,9,0.03
2013-1-28,54.2,42.9,28.4,44.0,37.2,26.0,94,81,59,30.52,30.22,12,3,17,0.02
2013-1-29,73.7,56.6,45.0,55.0,49.1,43.0,93,78,49,30.22,30.04,7,2,13,0.00
2013-1-30,72.0,66.8,51.7,65.0,61.6,49.0,94,83,73,30.04,29.36,22,10,34,0.63
2013-1-31,62.4,45.1,30.0,60.0,31.0,20.0,93,60,38,29.99,29.38,16,4,25,0.21
2013-2-1,37.7,31.6,22.4,30.0,12.5,-99.9,78,48,33,30.43,29.86,19,-6,29,0.00
2013-2-2,39.3,29.2,15.9,25.0,15.1,-99.9,90,60,36,30.43,0.00,11,-9,15,0.00
2013-2-3,46.3,38.5,29.6,32.0,26.7,21.0,91,64,47,30.05,29.86,10,2,16,0.00
2013-2-4,44.7,35.7,22.5,29.0,22.7,19.0,88,61,43,30.18,30.00,11,2,13,0.00
2013-2-5,60.1,45.8,35.3,39.0,32.8,29.0,88,62,44,30.00,29.88,8,2,13,0.00
2013-2-6,57.2,41.8,28.3,38.0,30.0,26.0,93,68,32,30.32,29.98,9,2,17,0.00
2013-2-7,46.6,39.1,29.0,38.0,33.1,26.0,93,79,61,30.40,30.11,7,3,10,0.34
2013-2-8,56.9,43.5,36.6,46.0,36.5,26.0,94,78,54,30.10,29.83,14,6,25,0.30
2013-2-9,50.4,38.5,26.3,27.0,22.5,18.0,87,56,28,30.39,30.06,11,3,21,0.00
2013-2-10,51.3,35.9,20.7,38.0,24.3,19.0,93,67,31,30.53,30.24,12,2,15,0.04
2013-2-11,56.6,48.3,40.4,55.0,46.7,38.0,96,94,91,30.23,29.91,8,1,13,0.15
2013-2-12,61.3,48.8,33.6,51.0,35.4,27.0,94,64,29,30.09,29.94,9,2,20,0.02
2013-2-13,47.9,44.8,39.2,45.0,42.6,35.0,95,92,82,29.98,29.65,7,1,11,0.22
2013-2-14,53.0,39.0,28.3,35.0,31.3,27.0,95,77,45,30.08,29.85,9,1,14,0.01
2013-2-15,62.3,43.9,26.1,41.0,32.3,24.0,94,69,32,30.12,29.93,12,2,16,0.00
2013-2-16,44.7,36.4,31.0,35.0,32.5,26.0,94,87,62,30.01,29.88,8,1,10,0.27
2013-2-17,34.8,28.0,19.3,25.0,15.3,9.0,88,62,35,30.31,29.94,17,4,23,0.00
2013-2-18,52.1,33.6,14.0,27.0,20.3,12.0,92,63,35,30.44,30.24,10,2,17,0.07
2013-2-19,47.0,41.6,35.0,44.0,34.8,23.0,93,78,47,30.23,29.86,8,2,16,0.17
2013-2-20,51.4,40.7,32.3,23.0,17.0,10.0,57,40,19,30.19,29.98,13,4,23,0.00
2013-2-21,51.4,38.1,22.4,27.0,20.5,16.0,85,52,28,30.32,30.15,9,2,15,0.00
2013-2-22,40.8,37.6,32.8,34.0,27.6,20.0,92,68,47,30.39,30.18,7,2,11,0.06
2013-2-23,45.6,39.2,35.5,43.0,37.5,34.0,95,93,89,30.18,29.85,8,1,10,0.17
2013-2-24,60.5,47.8,33.3,42.0,32.9,24.0,96,62,30,30.07,29.82,13,3,18,0.00
2013-2-25,43.8,35.3,27.0,27.0,24.8,23.0,89,67,47,30.26,30.08,10,2,13,0.00
2013-2-26,50.9,39.4,27.0,49.0,36.4,24.0,95,89,74,30.20,29.61,9,3,14,0.60
2013-2-27,57.5,47.4,39.3,44.0,39.4,36.0,96,77,47,29.78,29.63,8,2,15,0.02
2013-2-28,48.8,41.9,33.6,41.0,30.8,26.0,93,67,44,29.86,29.71,13,2,18,0.00
2013-3-1,44.5,38.9,28.7,33.0,28.6,25.0,91,68,54,29.94,29.84,9,2,15,0.00
2013-3-2,43.4,38.1,34.1,30.0,25.2,20.0,81,61,50,29.94,29.86,9,3,16,0.00
2013-3-3,44.3,35.3,25.7,25.0,20.4,16.0,82,56,41,30.00,29.88,14,4,19,0.00
2013-3-4,51.5,35.7,22.1,22.0,16.9,14.0,81,50,22,30.13,30.00,11,3,19,0.00
2013-3-5,50.6,40.0,27.1,42.0,33.5,22.0,95,80,39,30.11,29.64,11,2,16,0.48
2013-3-6,46.1,39.2,33.9,38.0,33.8,31.0,94,82,63,30.07,29.58,17,7,32,0.21
2013-3-7,49.2,41.0,29.9,34.0,30.0,26.0,91,66,49,30.26,30.06,14,3,18,0.00
2013-3-8,55.5,41.8,26.3,32.0,26.8,24.0,92,59,34,30.33,30.19,22,4,22,0.00
2013-3-9,63.0,43.9,26.4,33.0,28.6,24.0,91,61,25,30.38,30.26,7,2,13,0.00
2013-3-10,66.6,46.4,26.2,36.0,29.8,24.0,93,60,24,30.35,30.20,9,2,16,0.00
2013-3-11,66.8,51.6,32.4,54.0,42.8,29.0,91,73,56,30.25,29.93,14,3,22,0.00
2013-3-12,64.7,58.0,45.0,60.0,49.3,35.0,94,75,45,29.98,29.74,15,5,18,0.73
2013-3-13,53.4,42.0,29.2,35.0,28.4,19.0,93,62,38,30.17,29.98,16,4,23,0.00
2013-3-14,51.5,40.3,30.6,25.0,20.5,17.0,76,47,29,30.26,30.13,14,4,24,0.00
2013-3-15,62.9,43.2,23.7,37.0,28.7,21.0,90,61,37,30.19,29.89,14,2,22,0.00
2013-3-16,78.0,55.4,35.8,56.0,44.6,33.0,92,71,37,29.89,29.60,20,2,26,0.02
2013-3-17,53.5,44.6,38.7,52.0,41.8,37.0,94,90,83,30.24,29.82,11,4,16,0.05
2013-3-18,39.4,37.7,35.9,38.0,36.2,34.0,95,94,93,30.26,29.89,8,3,13,0.15
2013-3-19,66.0,49.9,36.5,45.0,29.2,11.0,95,56,19,30.05,29.84,15,4,22,0.00
2013-3-20,57.0,44.7,27.4,30.0,18.0,9.0,78,37,18,30.11,29.79,11,2,18,0.00
2013-3-21,48.9,37.9,29.8,29.0,17.2,11.0,61,44,31,30.01,29.77,18,6,22,0.00
2013-3-22,51.4,35.2,19.6,22.0,16.9,12.0,84,51,26,30.11,29.97,11,2,14,0.00
2013-3-23,57.8,41.2,25.0,34.0,27.0,21.0,88,62,31,30.09,29.93,5,1,10,0.00
2013-3-24,39.1,34.9,30.2,35.0,32.1,28.0,94,89,70,29.96,29.63,11,3,13,0.63
2013-3-25,47.5,39.1,32.8,38.0,30.6,25.0,95,74,47,29.81,29.58,12,3,21,0.08
2013-3-26,49.0,40.7,28.6,31.0,28.2,25.0,88,63,47,30.13,29.81,13,3,21,0.00
2013-3-27,50.6,38.9,26.1,30.0,26.1,23.0,91,63,37,30.25,30.13,12,3,22,0.00
2013-3-28,54.4,40.9,25.3,30.0,26.0,23.0,91,60,34,30.31,30.18,15,4,20,0.00
2013-3-29,61.9,43.7,28.5,35.0,28.4,24.0,88,60,25,30.35,30.17,13,2,14,0.00
2013-3-30,65.9,47.9,28.9,38.0,32.0,26.0,91,60,27,30.27,30.09,6,1,13,0.00
2013-3-31,65.0,52.7,41.9,57.0,48.1,36.0,94,85,71,30.10,29.80,6,1,13,0.26
2013-4-1,70.7,57.8,41.9,55.0,44.3,31.0,96,65,34,30.01,29.81,16,3,22,0.00
2013-4-2,58.1,45.4,29.6,33.0,27.5,20.0,91,55,24,30.18,30.02,12,3,19,0.00
2013-4-3,57.4,41.4,26.7,33.0,25.0,17.0,91,59,21,30.36,30.19,12,2,16,0.00
2013-4-4,48.3,40.9,35.4,36.0,24.6,18.0,93,55,35,30.43,30.00,9,3,15,0.61
2013-4-5,65.2,48.1,37.3,48.0,39.9,36.0,94,77,35,30.03,29.89,11,3,15,0.15
2013-4-6,63.1,49.0,31.5,37.0,30.9,23.0,94,56,25,30.31,30.04,11,2,13,0.00
2013-4-7,72.5,56.6,34.2,45.0,40.1,32.0,91,58,34,30.29,30.08,15,4,22,0.00
2013-4-8,79.1,62.4,43.8,59.0,49.8,41.0,94,67,40,30.15,30.02,13,3,17,0.00
2013-4-9,85.7,73.4,59.2,61.0,56.4,53.0,83,57,37,30.16,30.02,9,2,17,0.00
2013-4-10,88.4,77.0,63.0,63.0,59.2,56.0,81,56,38,30.06,29.89,14,4,19,0.00
2013-4-11,81.1,72.8,64.2,65.0,60.9,58.0,81,67,47,29.95,29.75,14,5,26,0.00
2013-4-12,84.3,73.5,63.6,68.0,59.9,42.0,93,65,35,29.76,29.56,15,5,21,0.46
2013-4-13,73.1,61.4,43.5,48.0,43.3,38.0,87,54,33,29.98,29.76,8,1,15,0.00
2013-4-14,79.9,61.9,38.9,50.0,43.0,37.0,94,57,25,30.12,30.00,8,2,15,0.00
2013-4-15,68.8,61.8,55.4,58.0,55.3,48.0,92,80,50,30.24,30.05,8,3,17,0.12
2013-4-16,76.9,65.7,58.5,62.0,59.2,56.0,92,81,58,30.33,30.18,6,2,12,0.00
2013-4-17,83.2,67.4,51.7,66.0,60.2,50.0,96,79,52,30.21,30.10,5,1,10,0.00
2013-4-18,78.7,70.2,63.1,66.0,61.2,58.0,93,75,50,30.18,30.02,12,4,20,0.00
2013-4-19,79.4,70.0,59.4,69.0,64.6,55.0,94,83,67,30.02,29.69,20,7,35,1.22
2013-4-20,64.2,53.5,40.6,55.0,38.7,32.0,92,61,33,30.29,29.81,11,3,18,0.00
2013-4-21,59.5,50.7,39.3,44.0,35.6,30.0,93,58,45,30.55,30.30,10,4,19,0.00
2013-4-22,61.1,49.6,36.5,44.0,37.7,33.0,91,66,44,30.52,30.31,12,5,17,0.00
2013-4-23,69.7,54.8,47.6,53.0,46.9,43.0,93,76,51,30.34,30.13,10,3,13,0.00
2013-4-24,75.3,60.5,40.8,59.0,51.7,40.0,96,75,51,30.15,29.94,14,3,24,0.00
2013-4-25,70.2,57.8,43.3,57.0,43.4,37.0,92,61,34,30.29,29.99,10,3,19,0.00
2013-4-26,70.2,54.1,34.6,50.0,40.8,33.0,95,67,33,30.46,30.29,8,1,14,0.00
2013-4-27,71.0,59.2,47.4,56.0,50.3,46.0,95,75,45,30.39,30.27,6,1,10,0.00
2013-4-28,58.6,55.5,53.7,56.0,53.2,52.0,95,91,85,30.28,30.10,5,1,13,0.22
2013-4-29,70.2,58.9,53.3,61.0,55.9,52.0,95,90,71,30.10,30.00,5,1,8,0.43
2013-4-30,66.2,59.8,52.7,58.0,56.2,51.0,96,88,74,30.22,30.04,7,2,12,0.00
2013-5-1,67.4,60.5,55.7,58.0,54.6,45.0,94,82,61,30.37,30.21,10,4,17,0.00
2013-5-2,66.5,59.0,53.0,58.0,52.3,45.0,91,79,61,30.38,30.28,13,3,13,0.00
2013-5-3,68.3,55.7,41.2,55.0,47.7,40.0,96,77,47,30.32,30.21,13,3,16,0.00
2013-5-4,58.9,52.5,46.7,53.0,47.6,44.0,90,84,77,30.27,30.14,10,3,14,0.00
2013-5-5,59.1,53.8,46.4,55.0,49.0,42.0,88,83,77,30.17,30.05,11,5,15,0.00
2013-5-6,63.2,58.3,54.9,61.0,56.6,53.0,95,94,88,30.07,29.87,10,4,15,1.11
2013-5-7,67.7,60.5,57.2,61.0,57.3,53.0,96,89,63,29.92,29.86,9,1,11,0.01
2013-5-8,61.7,56.1,51.6,59.0,54.4,50.0,96,94,89,30.02,29.93,2,0,5,0.11
2013-5-9,81.9,69.2,48.4,64.0,58.4,47.0,97,71,45,30.06,29.98,10,1,11,0.01
2013-5-10,83.3,69.5,51.5,67.0,60.5,50.0,96,75,49,30.06,29.92,10,2,15,0.00
2013-5-11,80.6,73.0,65.6,67.0,63.7,62.0,91,73,55,29.93,29.75,9,2,15,0.00
2013-5-12,69.9,62.6,43.7,63.0,48.2,37.0,95,62,33,30.05,29.79,12,2,22,0.02
2013-5-13,64.8,52.3,35.6,46.0,38.0,33.0,95,63,34,30.21,30.05,12,2,18,0.00
2013-5-14,70.9,54.4,34.0,49.0,40.4,33.0,95,64,32,30.27,30.06,9,2,14,0.00
2013-5-15,88.0,70.8,52.5,65.0,56.4,45.0,79,61,45,30.06,29.85,15,3,19,0.00
2013-5-16,85.9,73.7,58.8,66.0,62.9,57.0,94,71,45,29.98,29.88,7,1,14,0.00
2013-5-17,85.8,72.8,61.2,70.0,63.8,60.0,95,76,45,30.12,29.97,6,1,10,0.30
2013-5-18,72.0,66.6,61.3,69.0,64.7,60.0,95,93,88,30.18,30.08,6,2,12,0.22
2013-5-19,76.6,68.2,63.0,71.0,66.0,62.0,96,93,80,30.16,30.06,8,2,17,0.12
2013-5-20,81.5,70.6,65.1,72.0,67.8,64.0,96,91,70,30.11,30.02,8,1,9,0.17
2013-5-21,85.9,74.4,64.1,74.0,69.4,63.0,97,86,62,30.04,29.91,7,2,12,0.01
2013-5-22,84.0,75.9,70.0,73.0,69.4,66.0,94,81,64,30.00,29.88,12,4,17,0.00
2013-5-23,79.6,71.3,64.0,71.0,67.3,62.0,96,87,71,29.94,29.78,7,1,10,0.35
2013-5-24,67.3,62.4,51.5,62.0,51.6,37.0,95,71,40,30.20,29.81,26,3,30,0.01
2013-5-25,73.2,56.1,37.8,49.0,41.0,34.0,95,63,28,30.28,30.14,7,1,17,0.00
2013-5-26,75.8,59.1,39.8,58.0,47.3,38.0,96,70,33,30.29,30.17,9,1,12,0.00
2013-5-27,78.2,61.7,44.1,63.0,53.5,43.0,96,77,52,30.30,30.16,6,1,13,0.00
2013-5-28,84.7,71.1,54.5,70.0,63.0,53.0,96,78,55,30.23,30.12,11,3,18,0.00
2013-5-29,86.2,74.9,61.6,71.0,65.6,60.0,95,74,51,30.21,30.14,10,3,15,0.00
2013-5-30,86.0,72.9,58.7,72.0,65.1,57.0,96,78,53,30.26,30.17,9,2,16,0.00
2013-5-31,86.2,73.6,58.8,72.0,65.4,57.0,96,78,52,30.21,30.09,13,2,15,0.00
2013-6-1,88.4,77.4,63.8,72.0,67.0,62.0,95,73,46,30.11,30.00,13,3,18,0.00
2013-6-2,84.6,75.9,68.7,71.0,68.2,66.0,95,78,60,30.01,29.89,11,4,18,0.33
2013-6-3,83.2,73.1,66.4,74.0,69.4,65.0,96,89,61,29.95,29.83,6,1,8,0.95
2013-6-4,79.0,68.3,60.3,68.0,63.5,59.0,96,86,60,30.11,29.96,5,0,6,0.00
2013-6-5,79.6,69.0,55.7,70.0,62.6,55.0,97,81,59,30.16,30.03,10,1,14,0.01
2013-6-6,74.9,69.4,63.8,71.0,65.6,59.0,96,88,70,30.05,29.80,8,2,16,0.45
2013-6-7,72.1,69.7,68.3,71.0,68.5,67.0,96,95,93,29.85,29.59,9,1,14,0.82
2013-6-8,83.0,71.8,63.9,70.0,66.3,63.0,97,84,56,30.09,29.81,5,1,8,0.31
2013-6-9,86.6,74.8,61.7,74.0,68.8,61.0,97,83,61,30.16,30.05,9,2,13,0.23
2013-6-10,83.9,74.2,69.2,76.0,71.1,68.0,96,90,75,30.10,29.85,18,4,22,0.27
2013-6-11,85.6,75.8,67.6,72.0,68.5,66.0,95,80,56,29.93,29.86,6,1,13,0.00
2013-6-12,90.2,78.5,64.0,78.0,71.0,63.0,95,79,62,29.96,29.84,6,1,12,0.00
2013-6-13,93.2,77.3,66.9,77.0,71.2,64.0,96,83,52,29.84,29.58,13,2,27,0.10
2013-6-14,80.3,68.9,56.6,66.0,60.1,55.0,96,76,49,30.01,29.73,12,2,18,0.01
2013-6-15,83.8,69.9,54.8,68.0,61.6,54.0,96,78,48,30.13,30.02,8,1,10,0.00
2013-6-16,87.1,75.3,60.4,73.0,67.3,59.0,96,78,58,30.09,29.97,10,2,14,0.00
2013-6-17,85.0,75.8,69.8,75.0,71.1,68.0,95,86,66,30.03,29.91,8,1,11,0.01
2013-6-18,81.1,73.6,67.5,75.0,70.7,66.0,95,91,80,29.95,29.77,11,2,11,1.30
2013-6-19,77.6,70.1,60.7,71.0,66.4,60.0,97,88,74,30.14,29.89,7,2,11,0.00
2013-6-20,80.6,70.6,60.2,69.0,64.1,59.0,97,82,57,30.26,30.15,6,1,11,0.01
2013-6-21,82.0,68.7,55.7,66.0,60.0,54.0,96,77,43,30.29,30.21,8,1,11,0.00
2013-6-22,82.7,72.3,61.2,74.0,68.2,60.0,96,87,70,30.25,30.14,8,2,13,0.22
2013-6-23,87.3,77.5,68.1,75.0,71.8,67.0,96,83,61,30.21,30.11,5,1,10,0.00
2013-6-24,87.0,76.7,66.6,78.0,72.5,66.0,96,87,71,30.19,30.07,5,1,10,0.00
2013-6-25,91.1,79.6,68.5,79.0,72.8,67.0,96,81,59,30.10,29.96,6,1,12,0.01
2013-6-26,91.0,76.5,68.9,79.0,71.6,68.0,95,86,60,30.00,29.85,6,1,19,0.26
2013-6-27,86.6,76.6,67.9,76.0,71.5,67.0,96,85,64,29.91,29.69,7,2,13,0.01
2013-6-28,90.3,79.2,71.7,77.0,73.0,70.0,96,82,60,29.73,29.54,11,2,17,0.02
2013-6-29,87.9,76.8,68.2,76.0,70.9,67.0,96,83,57,29.71,29.58,9,2,16,0.06
2013-6-30,86.4,75.4,70.1,76.0,71.7,69.0,96,89,64,29.87,29.71,10,2,16,0.07
2013-7-1,82.5,75.3,70.2,75.0,71.8,69.0,96,89,72,29.99,29.85,9,2,14,0.28
2013-7-2,78.4,74.7,72.8,75.0,72.5,71.0,95,92,89,30.19,29.99,7,3,13,0.88
2013-7-3,81.6,75.1,72.1,77.0,73.2,71.0,96,94,83,30.24,30.15,8,1,15,2.01
2013-7-4,86.4,77.4,72.0,78.0,73.7,71.0,97,89,70,30.28,30.18,9,2,21,0.26
2013-7-5,87.4,78.1,69.5,77.0,73.5,68.0,97,86,66,30.27,30.16,10,2,16,0.01
2013-7-6,87.2,76.9,69.1,77.0,72.6,68.0,96,87,66,30.25,30.11,7,1,11,0.00
2013-7-7,87.5,78.2,69.9,78.0,73.4,69.0,96,86,67,30.18,30.05,13,2,15,0.07
2013-7-8,88.6,77.8,71.1,77.0,72.6,70.0,96,85,60,30.17,30.08,4,1,7,0.04
2013-7-9,87.3,78.4,71.6,79.0,74.6,70.0,97,88,72,30.14,30.04,10,2,14,0.00
2013-7-10,87.7,78.1,70.4,80.0,74.0,69.0,96,87,74,30.09,29.93,9,2,19,0.94
2013-7-11,82.5,75.1,71.6,77.0,73.0,70.0,97,93,83,29.97,29.88,6,1,9,0.38
2013-7-12,73.6,70.4,68.2,72.0,68.7,67.0,96,94,89,30.05,29.87,9,2,13,0.45
2013-7-13,78.9,73.5,69.1,76.0,71.4,68.0,95,93,82,30.21,30.03,7,2,10,0.23
2013-7-14,86.5,77.2,71.8,78.0,73.3,70.0,96,88,66,30.33,30.21,6,2,16,0.05
2013-7-15,90.6,78.0,68.0,79.0,72.5,67.0,97,85,59,30.34,30.24,5,1,7,0.01
2013-7-16,93.7,76.4,67.6,80.0,73.0,67.0,97,90,63,30.27,30.20,7,0,7,0.00
2013-7-17,92.0,81.8,73.1,80.0,76.2,72.0,96,84,59,30.23,30.11,7,0,8,0.00
2013-7-18,93.8,82.4,72.4,81.0,76.0,71.0,97,83,58,30.15,30.02,4,0,5,0.00
2013-7-19,90.9,82.1,72.9,80.0,76.1,72.0,96,83,64,30.08,29.95,11,2,14,0.00
2013-7-20,89.9,80.1,74.4,80.0,75.4,72.0,95,86,68,29.99,29.89,10,2,17,0.22
2013-7-21,89.5,78.0,72.6,81.0,74.5,71.0,96,89,69,29.97,29.89,7,1,10,0.05
2013-7-22,86.9,77.2,71.1,78.0,73.6,70.0,97,89,70,29.96,29.80,7,1,12,0.01
2013-7-23,90.4,79.9,73.1,79.0,74.0,72.0,95,83,59,29.82,29.70,8,1,10,0.00
2013-7-24,89.5,79.2,68.8,78.0,72.5,68.0,97,81,60,29.86,29.72,6,1,13,0.00
2013-7-25,80.0,72.1,64.6,69.0,66.1,63.0,95,82,65,30.05,29.87,7,2,12,0.06
2013-7-26,82.2,72.1,61.2,72.0,66.1,60.0,97,82,60,30.12,30.04,5,1,11,0.01
2013-7-27,82.1,71.6,63.8,74.0,68.6,63.0,97,90,73,30.06,29.94,7,1,11,0.04
2013-7-28,87.3,75.9,68.6,75.0,70.9,68.0,96,85,60,29.99,29.91,6,1,11,0.00
2013-7-29,84.7,73.0,62.5,69.0,66.3,60.0,96,82,44,30.18,29.99,6,1,12,0.14
2013-7-30,85.0,71.1,56.8,74.0,64.5,56.0,97,81,50,30.24,30.15,4,0,6,0.01
2013-7-31,81.5,72.1,66.8,74.0,69.3,66.0,97,91,76,30.16,30.01,4,1,6,1.70
2013-8-1,85.7,75.9,68.2,76.0,71.6,67.0,96,87,69,30.01,29.84,6,1,9,0.21
2013-8-2,87.3,74.9,63.4,76.0,68.1,62.0,97,81,52,30.02,29.91,4,1,9,0.01
2013-8-3,88.8,76.5,66.7,78.0,72.1,66.0,97,87,59,30.01,29.90,5,0,8,0.00
2013-8-4,84.9,77.1,67.3,73.0,67.4,60.0,94,75,45,30.03,29.90,12,3,15,0.00
2013-8-5,79.8,71.3,63.5,70.0,65.2,62.0,96,82,60,30.12,30.01,5,1,9,0.00
2013-8-6,81.5,73.5,67.0,74.0,68.2,64.0,94,84,71,30.06,29.99,10,3,17,0.00
2013-8-7,84.0,75.3,67.5,75.0,70.5,66.0,96,86,65,30.10,30.03,9,2,14,0.00
2013-8-8,85.0,77.0,69.8,76.0,72.3,68.0,96,86,66,30.06,29.99,9,1,10,0.00
2013-8-9,91.4,80.2,70.5,80.0,74.7,69.0,97,84,64,30.03,29.95,11,2,14,0.00
2013-8-10,90.3,79.6,73.6,80.0,74.7,72.0,95,85,66,30.08,30.00,7,1,16,0.02
2013-8-11,87.9,77.0,70.6,79.0,74.1,70.0,97,91,69,30.11,30.01,4,0,8,0.33
2013-8-12,90.7,79.3,71.0,78.0,73.6,70.0,97,84,56,30.05,29.94,6,1,7,0.13
2013-8-13,87.5,76.6,70.4,78.0,73.4,69.0,96,90,68,29.93,29.77,8,1,10,0.02
2013-8-14,76.0,69.9,59.4,72.0,64.2,57.0,95,83,55,30.12,29.82,6,1,10,0.00
2013-8-15,76.5,64.0,54.9,62.0,57.5,54.0,97,82,51,30.19,30.11,6,1,10,0.00
2013-8-16,73.5,63.3,52.2,63.0,58.5,51.0,97,85,65,30.21,30.13,5,1,7,0.01
2013-8-17,71.6,64.8,56.3,68.0,62.3,55.0,97,92,85,30.23,30.16,6,2,11,0.20
2013-8-18,70.2,67.6,66.0,67.0,66.0,65.0,96,94,88,30.23,30.13,6,2,10,0.28
2013-8-19,76.2,68.8,65.1,72.0,67.1,64.0,97,94,85,30.22,30.10,4,0,7,0.18
2013-8-20,82.5,72.2,63.5,75.0,69.1,62.0,97,90,72,30.20,30.12,6,1,8,0.01
2013-8-21,85.8,74.4,67.4,78.0,71.6,66.0,97,91,74,30.23,30.09,4,0,9,0.00
2013-8-22,89.6,79.1,70.2,77.0,72.6,69.0,96,82,58,30.14,29.98,4,1,7,0.01
2013-8-23,85.7,73.3,66.9,77.0,69.7,63.0,97,89,67,30.12,29.94,8,2,25,0.02
2013-8-24,81.8,70.0,57.7,67.0,62.3,56.0,96,79,52,30.33,30.13,10,2,14,0.01
2013-8-25,80.0,67.3,55.0,68.0,60.9,54.0,97,82,50,30.42,30.30,6,1,11,0.01
2013-8-26,83.5,66.8,50.9,68.0,59.9,50.0,97,81,48,30.34,30.11,6,1,9,0.00
2013-8-27,89.5,74.6,61.0,78.0,69.5,60.0,96,85,58,30.11,29.95,5,0,9,0.01
2013-8-28,83.9,75.3,66.5,77.0,72.4,65.0,97,91,76,29.99,29.83,7,1,9,0.00
2013-8-29,84.7,76.9,69.6,75.0,72.4,68.0,96,87,69,30.02,29.84,9,2,13,0.01
2013-8-30,87.7,74.4,64.2,73.0,68.9,63.0,97,85,58,30.08,29.93,5,1,7,0.01
2013-8-31,87.5,74.4,63.2,76.0,69.8,62.0,97,86,67,29.95,29.84,8,2,17,0.01
2013-9-1,90.3,76.2,64.2,80.0,71.5,63.0,97,86,64,29.89,29.77,12,1,16,0.02
2013-9-2,91.1,78.2,69.7,78.0,72.3,69.0,96,84,55,29.87,29.78,5,1,10,0.00
2013-9-3,90.0,78.2,68.6,75.0,71.1,68.0,97,81,52,29.95,29.79,8,1,12,0.00
2013-9-4,85.6,71.9,62.5,69.0,64.6,61.0,96,79,51,30.11,29.95,5,1,11,0.01
2013-9-5,88.4,70.4,56.4,68.0,61.7,55.0,97,78,40,30.11,30.03,6,1,12,0.01
2013-9-6,80.9,68.3,57.2,63.0,59.4,56.0,95,76,47,30.22,30.11,7,2,13,0.00
2013-9-7,83.1,66.7,52.2,67.0,60.4,51.0,97,82,54,30.16,29.98,5,1,11,0.00
2013-9-8,89.2,72.3,57.0,73.0,64.6,56.0,97,80,48,29.99,29.91,6,1,9,0.01
2013-9-9,85.0,74.0,66.5,74.0,69.5,65.0,96,87,68,30.16,29.99,7,2,10,0.00
2013-9-10,86.4,69.5,63.4,75.0,66.8,62.0,97,92,69,30.23,30.15,4,1,9,0.00
2013-9-11,91.4,76.1,63.8,75.0,69.0,63.0,97,81,54,30.19,30.06,10,2,15,0.01
2013-9-12,92.5,76.3,65.9,76.0,70.0,65.0,96,82,56,30.05,29.79,6,1,12,0.00
2013-9-13,83.8,72.9,62.7,68.0,61.1,53.0,96,70,37,29.93,29.76,12,2,18,0.00
2013-9-14,76.4,62.9,51.8,57.0,51.9,49.0,95,71,42,30.16,29.93,10,2,15,0.00
2013-9-15,81.6,62.1,44.8,63.0,54.1,44.0,97,78,45,30.27,30.12,6,1,10,0.01
2013-9-16,83.9,69.1,56.0,69.0,61.6,55.0,97,79,50,30.23,30.09,13,2,17,0.00
2013-9-17,74.6,61.8,50.4,59.0,54.1,49.0,96,78,49,30.38,30.23,9,2,14,0.00
2013-9-18,74.3,57.8,43.0,56.0,49.0,42.0,96,76,40,30.35,30.19,6,1,14,0.01
2013-9-19,75.7,63.3,53.7,65.0,57.3,52.0,95,83,58,30.22,30.10,5,1,7,0.00
2013-9-20,73.1,67.2,61.2,67.0,64.4,60.0,96,90,81,30.10,29.98,7,1,8,0.03
2013-9-21,75.6,67.7,62.2,71.0,65.9,61.0,97,94,83,29.98,29.73,10,2,22,0.36
2013-9-22,77.6,66.5,56.6,63.0,59.7,55.0,97,81,51,29.93,29.75,8,2,13,0.01
2013-9-23,73.0,61.8,51.4,59.0,53.4,50.0,96,76,54,30.10,29.93,8,2,16,0.00
2013-9-24,77.2,62.7,50.9,63.0,56.2,50.0,97,81,55,30.13,29.95,5,1,9,0.00
2013-9-25,73.0,60.5,49.1,66.0,57.8,48.0,98,91,69,29.98,29.89,4,0,9,0.03
2013-9-26,77.5,64.6,51.5,62.0,57.7,50.0,97,80,45,30.07,29.91,8,2,13,0.00
2013-9-27,74.7,60.1,45.6,61.0,53.6,45.0,97,81,55,30.23,30.07,10,2,14,0.01
2013-9-28,70.2,58.6,46.1,58.0,52.9,45.0,98,83,57,30.30,30.21,6,2,14,0.00
2013-9-29,73.5,58.5,46.2,59.0,52.1,45.0,97,82,50,30.21,30.06,8,1,12,0.00
2013-9-30,77.7,59.5,45.3,62.0,53.2,44.0,97,82,49,30.12,30.01,3,0,7,0.01
2013-10-1,84.9,64.2,47.5,66.0,56.8,46.0,97,80,44,30.13,30.02,7,0,9,0.00
2013-10-2,85.9,66.7,50.3,65.0,58.4,49.0,98,78,44,30.14,30.04,5,1,11,0.01
2013-10-3,87.2,67.9,53.4,67.0,60.7,52.0,97,81,46,30.14,30.05,5,0,9,0.00
2013-10-4,88.2,70.1,55.2,70.0,62.4,54.0,97,80,45,30.14,30.04,6,1,10,0.00
2013-10-5,90.8,72.5,57.2,70.0,64.1,56.0,97,78,45,30.12,30.01,6,0,11,0.00
2013-10-6,84.8,72.1,57.1,70.0,64.9,56.0,97,80,50,30.06,29.92,13,3,20,0.00
2013-10-7,74.8,69.1,59.6,71.0,66.6,53.0,95,91,80,30.04,29.82,11,3,17,0.88
2013-10-8,64.5,58.7,54.5,55.0,51.3,49.0,89,77,63,30.26,30.04,15,4,17,0.00
2013-10-9,65.3,58.3,54.1,56.0,52.4,50.0,93,81,72,30.25,30.17,17,6,20,0.04
2013-10-10,61.6,57.5,53.2,60.0,56.0,52.0,95,94,93,30.15,29.97,11,5,16,0.36
2013-10-11,69.7,63.1,58.7,64.0,60.2,57.0,95,90,79,29.99,29.93,6,2,10,0.05
2013-10-12,67.6,63.8,61.1,66.0,62.0,59.0,96,93,90,30.12,29.98,8,3,11,0.07
2013-10-13,65.6,62.4,60.4,64.0,60.9,59.0,96,95,91,30.26,30.11,9,4,17,0.09
2013-10-14,64.1,60.4,54.5,60.0,58.4,53.0,96,93,85,30.30,30.22,10,4,14,0.00
2013-10-15,71.9,59.2,45.5,60.0,52.9,45.0,98,82,46,30.24,30.09,7,1,12,0.01
2013-10-16,72.0,64.6,61.0,65.0,61.5,59.0,96,90,73,30.10,29.95,4,0,7,0.00
2013-10-17,69.7,64.1,58.4,67.0,62.3,57.0,97,94,85,29.97,29.83,5,1,11,0.06
2013-10-18,69.7,58.5,47.3,64.0,51.6,46.0,96,80,51,30.07,29.89,5,1,10,0.00
2013-10-19,60.4,55.0,47.8,59.0,53.9,47.0,97,96,94,30.01,29.85,3,0,4,0.04
2013-10-20,63.7,52.5,39.1,51.0,43.0,38.0,97,73,44,30.15,29.93,10,2,13,0.01
2013-10-21,67.0,49.2,32.3,52.0,43.2,31.0,97,82,48,30.20,30.02,8,1,13,0.00
2013-10-22,69.7,56.8,47.8,58.0,52.7,47.0,97,87,57,30.01,29.82,5,1,8,0.00
2013-10-23,63.2,54.1,43.8,55.0,46.5,37.0,96,77,47,30.02,29.71,10,2,20,0.09
2013-10-24,56.3,42.8,31.3,38.0,34.1,30.0,95,75,43,30.23,30.03,9,1,17,0.00
2013-10-25,55.3,42.6,31.8,37.0,32.5,29.0,95,72,39,30.39,30.22,10,2,15,0.00
2013-10-26,59.0,42.4,24.7,37.0,31.1,23.0,95,69,37,30.39,30.07,9,2,18,0.00
2013-10-27,67.0,51.5,34.8,45.0,40.0,33.0,95,68,39,30.15,30.05,7,1,12,0.00
2013-10-28,69.8,51.2,34.7,54.0,44.6,34.0,96,81,48,30.28,30.14,6,0,10,0.00
2013-10-29,70.8,59.0,51.3,56.0,52.6,50.0,95,81,55,30.37,30.26,7,1,8,0.00
2013-10-30,73.9,60.0,51.0,62.0,55.9,50.0,96,87,62,30.30,30.16,7,0,10,0.01
2013-10-31,72.8,62.7,49.9,63.0,56.7,49.0,97,82,65,30.19,29.88,11,3,22,0.00
2013-11-1,71.6,67.9,60.6,67.0,64.2,59.0,95,88,76,29.87,29.65,18,5,31,0.18
2013-11-2,70.8,60.2,51.5,59.0,47.6,36.0,97,68,37,29.96,29.69,7,1,13,0.01
2013-11-3,62.8,49.9,34.1,42.0,38.1,32.0,93,67,39,30.42,29.96,12,2,16,0.00
2013-11-4,53.6,42.1,29.9,35.0,31.5,28.0,95,68,44,30.61,30.43,13,2,13,0.00
2013-11-5,58.4,47.7,34.5,46.0,38.5,31.0,88,71,58,30.62,30.48,8,2,11,0.00
2013-11-6,71.7,56.9,46.9,56.0,49.1,42.0,95,77,57,30.48,30.13,4,1,10,0.00
2013-11-7,68.3,54.7,38.8,60.0,46.1,33.0,97,75,47,30.14,29.94,9,2,22,0.00
2013-11-8,55.9,42.4,28.5,34.0,28.8,26.0,91,62,36,30.36,30.15,12,2,14,0.00
2013-11-9,56.5,39.3,23.8,36.0,29.5,22.0,95,72,37,30.41,30.18,8,1,14,0.00
2013-11-10,71.3,53.5,31.9,42.0,33.0,26.0,91,51,21,30.28,30.06,11,3,22,0.00
2013-11-11,60.1,43.5,26.6,35.0,30.0,24.0,91,63,33,30.38,30.14,12,1,14,0.00
2013-11-12,55.8,41.9,30.4,40.0,29.6,16.0,82,63,44,30.48,30.05,14,3,21,0.00
2013-11-13,46.1,31.4,19.9,25.0,18.9,17.0,88,63,33,30.58,30.47,13,2,15,0.00
2013-11-14,61.4,38.1,19.2,27.0,21.9,17.0,90,60,20,30.49,30.34,9,1,15,0.00
2013-11-15,62.4,43.5,22.1,47.0,32.7,20.0,94,70,34,30.37,30.23,8,1,15,0.03
2013-11-16,58.6,54.0,48.8,56.0,52.3,47.0,96,94,90,30.31,30.24,4,0,4,0.11
2013-11-17,67.2,60.1,53.4,64.0,57.6,52.0,97,91,80,30.25,29.84,9,2,14,0.03
2013-11-18,70.8,63.3,51.9,66.0,47.5,27.0,96,62,28,30.00,29.79,11,3,18,0.11
2013-11-19,54.7,47.6,39.9,32.0,29.5,27.0,72,51,38,30.37,29.99,11,3,17,0.00
2013-11-20,51.0,42.8,36.1,34.0,29.6,27.0,83,61,45,30.51,30.37,10,3,16,0.00
2013-11-21,55.1,45.9,38.0,45.0,39.7,34.0,91,79,67,30.55,30.43,6,2,8,0.00
2013-11-22,70.1,57.7,45.6,60.0,52.0,43.0,90,81,69,30.43,30.08,14,2,18,0.00
2013-11-23,60.8,54.2,40.4,58.0,38.4,19.0,91,58,34,30.22,30.06,17,4,19,0.00
2013-11-24,39.6,32.9,27.5,18.0,9.9,5.0,49,39,27,30.52,30.22,14,6,24,0.00
2013-11-25,37.2,36.7,36.2,20.0,18.2,16.0,51,47,43,30.43,30.42,2,0,3,0.00
2013-11-26,52.0,39.2,32.9,51.0,34.8,17.0,96,86,43,30.42,29.63,8,2,18,1.47
2013-11-27,45.8,39.3,30.0,45.0,35.0,16.0,96,85,56,30.20,29.55,15,4,23,0.36
2013-11-28,43.0,30.3,19.8,26.0,20.7,16.0,93,70,44,30.52,30.20,10,1,13,0.00
2013-11-29,49.1,32.3,18.6,30.0,23.7,17.0,94,74,43,30.71,30.50,11,2,12,0.00
2013-11-30,46.0,31.6,20.9,31.0,24.8,19.0,93,78,54,30.71,30.43,5,1,9,0.00
2013-12-1,56.4,33.3,18.0,34.0,26.0,16.0,94,78,37,30.42,30.07,4,0,7,0.00
2013-12-2,56.6,39.4,22.7,39.0,32.1,21.0,95,78,47,30.07,29.87,3,0,6,0.01
2013-12-3,58.4,44.5,30.1,49.0,39.6,29.0,95,84,65,30.02,29.90,4,1,8,0.00
2013-12-4,59.3,52.4,45.3,56.0,50.8,43.0,96,94,89,30.10,30.01,7,1,7,0.17
2013-12-5,68.1,62.6,52.0,65.0,60.7,51.0,97,93,88,30.12,30.02,8,3,13,0.19
2013-12-6,77.8,70.2,49.4,66.0,63.9,46.0,93,81,64,30.08,29.92,18,6,25,0.01
2013-12-7,47.7,44.0,39.9,46.0,39.9,33.0,94,85,75,30.51,30.05,9,4,16,0.51
2013-12-8,39.8,34.2,31.9,32.0,30.7,27.0,95,88,70,30.53,30.34,8,2,12,0.12
2013-12-9,43.6,37.2,32.2,43.0,36.1,31.0,96,95,95,30.34,30.08,5,1,9,0.20
2013-12-10,46.2,38.5,26.7,42.0,35.6,25.0,97,90,63,30.34,29.99,11,2,18,0.21
2013-12-11,48.2,32.0,19.3,32.0,24.5,18.0,95,78,39,30.48,30.31,5,1,10,0.00
2013-12-12,41.8,31.3,21.6,25.0,19.7,11.0,94,66,32,30.47,30.32,12,2,16,0.00
2013-12-13,50.1,32.8,17.4,29.0,22.2,16.0,93,70,33,30.42,30.29,7,1,16,0.00
2013-12-14,39.8,36.6,32.2,38.0,34.1,29.0,95,91,78,30.33,29.82,7,2,10,0.57
2013-12-15,51.0,40.3,27.5,43.0,33.9,26.0,96,80,54,30.09,29.72,9,2,18,0.01
2013-12-16,50.6,36.3,26.1,35.0,30.4,24.0,94,81,53,30.20,30.07,5,1,9,0.00
2013-12-17,63.2,41.7,26.8,43.0,33.9,25.0,95,78,40,30.14,29.87,18,2,24,0.15
2013-12-18,47.3,35.1,25.2,35.0,26.3,22.0,94,73,39,30.30,30.05,10,1,13,0.00
2013-12-19,64.8,42.9,23.4,32.0,27.4,22.0,94,61,25,30.32,30.21,9,2,14,0.00
2013-12-20,66.4,53.2,35.9,52.0,41.6,30.0,87,66,48,30.23,30.10,10,2,16,0.00
2013-12-21,72.1,61.7,47.1,65.0,56.4,45.0,94,83,70,30.14,30.00,15,4,18,0.00
2013-12-22,73.2,67.2,62.2,69.0,63.9,61.0,96,89,82,30.08,29.96,19,4,27,0.96
2013-12-23,65.6,58.4,43.8,64.0,54.7,36.0,96,88,70,30.21,29.99,12,4,15,0.48
2013-12-24,45.3,38.0,27.2,36.0,26.1,14.0,83,63,43,30.50,30.20,13,5,18,0.00
2013-12-25,37.6,26.2,17.2,20.0,16.2,13.0,91,69,39,30.61,30.44,6,1,10,0.00
2013-12-26,51.8,32.1,16.2,30.0,21.8,14.0,93,70,39,30.43,30.28,8,1,11,0.00
2013-12-27,52.3,34.1,20.8,28.0,23.0,19.0,93,69,32,30.51,30.39,7,1,11,0.00
2013-12-28,59.5,38.6,20.6,41.0,28.3,19.0,95,71,32,30.44,30.20,8,1,9,0.07
2013-12-29,52.4,44.0,35.0,49.0,42.3,34.0,96,94,87,30.21,29.71,9,2,12,0.92
2013-12-30,51.9,40.1,31.1,46.0,35.7,30.0,97,85,66,30.18,29.94,7,1,10,0.01
2013-12-31,50.9,38.7,28.3,37.0,29.3,23.0,95,73,37,30.38,30.16,8,1,16,0.00
2014-1-1,47.0,32.2,23.4,32.0,26.2,22.0,94,81,48,30.45,30.18,4,0,8,0.00
2014-1-2,45.7,35.3,26.0,40.0,33.4,24.0,96,93,78,30.17,29.64,5,0,10,0.52